Munhall, PA

6:21 PM EST on February 08, 2016 (GMT -0500)
Carrick | | Change Station
CLOSE
Current Station
Personal Weather Station
Location: Pittsburgh, PA
Elevation: 1217 ft
Nearby Weather Stations
Active Advisory: Winter Weather Advisory

Elev 1217 ft 40.40 °N, 79.99 °W | Updated 13 seconds ago

Overcast
Overcast
37.0 °F
Feels Like 37 °F
N
0.0
Wind Variable Wind from South
Gusts 2.5 mph

Today
High -- | Low -- °F
--% Chance of Precip.
Yesterday
High -- | Low -- °F
Precip. -- in
Pressure 29.61 in
Visibility 10.0 miles
Clouds Overcast 1900 ft
Windchill 37 °F
Dew Point 28 °F
Humidity 68%
Rainfall 0.04 in
Snow Depth Not available.
7:22 AM 5:45 PM
New Moon, 0% visible
METAR KAGC 082253Z 20009KT 10SM OVC019 04/00 A2957 RMK AO2 SLP027 T00390000
Pressure 29.61 in
Visibility 10.0 miles
Clouds Overcast 1900 ft
Windchill 37 °F
Dew Point 28 °F
Humidity 68%
Rainfall 0.04 in
Snow Depth Not available.
7:22 AM 5:45 PM
New Moon, 0% visible
METAR KAGC 082253Z 20009KT 10SM OVC019 04/00 A2957 RMK AO2 SLP027 T00390000

10-Day Weather Forecast

Almanac

Astronomy

Feb. 08, 2016 Rise Set
Actual Time
Civil Twilight
Nautical Twilight
Astronomical Twilight
Moon
Length of Visible Light
Length of Day
Tomorrow will be .
, % of the Moon is Illuminated

Today's Extremes

State Highs State Lows

Community

WunderPhotos

Upload Photos

1,891,525 photos uploaded!

WunderBlog® & News

Nearby

Air Quality

  Air Quality AQ Index Pollutant
Not available.

Snow Depth

Station Depth Elevation

Earthquake Activity

City Distance Mag. Time & Date
Minimum magnitude displayed is 2.5.

Coastal Water Temperatures

Place Temperature

Stations

Nearby Weather Stations

Station Location Temp. Windchill Dew Point Humidity Wind Precip. Elev Updated Type
                   

Watches & Warnings

Winter Weather Advisory
Issued: 2:37 PM EST Feb. 8, 2016 – National Weather Service

... Winter Weather Advisory remains in effect from 7 PM this
evening to 7 am EST Wednesday...

* snow accumulation... 4 to 6 inches through Wednesday.

* Snow beginning... this evening.

* Period of most intense snow... later tonight into Tuesday.

* Snow ending... snow showers will gradually taper down through
Tuesday night.

* Impacts... hazardous travel conditions are expected due to snow.

Precautionary/preparedness actions...

A Winter Weather Advisory for snow means that periods of snow
will cause primarily travel difficulties. Be prepared for snow
covered roads and limited visibilities... and use caution while
driving.